TIME,DELAY(SENSOR),PRES,OXYGEN,RAWTEMP,T(OPTODE),TCPHASE,FLUOR,BETA(BETA700),BETA(BETA412),BETA(BETA440),CDOM,C(CSC),ED(ED411.90),ED(ED443.80),ED(ED489.40),ED(ED554.70),LU(LU412.20),LU(LU443.80),LU(LU489.40),LU(LU555.00),COMP,TILTX,TILTY,CHECK
1347573292,5805,875.4199829101562000,168.9311065673828000,396.5604858398437500,10.7075195312500000,38.2480392456054700,52,101,98,78,76,13406,2146954294,2147512731,2147282898,2147502363,2147089078,2146934857,2147699337,2147123492,316,-1,8,63006
1347576888,5806,986.1099853515625000,183.7474975585937500,477.0394897460937500,8.2401151657104500,38.5489387512207000,52,100,98,78,77,13404,2146955766,2147513609,2147290240,2147516260,2147090953,2146926144,2147714020,2147121563,1023,-1,8,10949
1347580488,5810,1006.6900024414062000,194.2767944335937500,489.4573974609375000,7.8562002182006840,38.0742988586425800,53,100,99,77,77,13394,2146957110,2147511515,2147293668,2147521700,2147091684,2146925888,2147718738,2147123620,3584,0,8,15251
1347584088,5804,1015.9099731445312000,194.8739929199218800,490.2149047851562500,7.8327507972717285,38.0491294860839840,52,100,98,79,78,13394,2146959625,2147513078,2147293769,2147517824,2147090377,2146926400,2147719478,2147121069,488,-1,8,5169
1347587688,5806,1020.1400146484375000,194.7239990234375000,490.8671875000000000,7.8125529289245605,38.0703697204589840,53,102,98,78,76,13394,2146958509,2147516032,2147293577,2147521161,2147092196,2146925632,2147715684,2147121709,241,-1,8,10987
1347591288,5806,1016.9799804687500000,194.9638977050781200,493.2421875000000000,7.7389979362487790,38.0961799621582000,53,100,97,79,78,13386,2146957769,2147515510,2147295497,2147517961,2147092763,2146923236,2147721609,2147119588,435,0,8,26663
1347594888,5804,1021.7199707031250000,196.2324066162109400,493.9952087402344000,7.7156667709350590,38.0290412902832000,52,101,98,79,78,13390,2146954212,2147513545,2147293211,2147520694,2147094555,2146927744,2147718052,2147121746,3343,-1,8,60800
1347598488,5807,1023.1799926757812000,197.2400970458984400,494.7777099609375000,7.6914191246032715,37.9795913696289060,51,99,98,78,77,13387,2146957284,2147518006,2147292434,2147520000,2147093001,2146926253,2147717741,2147118500,133,-1,8,36400
1347602088,5808,1019.9299926757812000,196.1544036865234400,496.5168151855469000,7.6375141143798830,38.0775794982910160,52,102,98,77,77,13387,2146957558,2147514358,2147294381,2147521252,2147088548,2146925065,2147719716,2147120192,21,-1,8,24320
1347605688,5808,1023.6799926757812000,197.4073028564453000,497.2701110839844000,7.6141619682312010,38.0124588012695300,52,100,99,77,78,13386,2146955922,2147513554,2147293522,2147520310,2147092050,2146921243,2147718601,2147117412,110,-1,8,41490
1347609288,5810,1025.3199462890625000,198.5881958007812500,496.1543884277344000,7.6487498283386230,37.9191894531250000,52,101,98,77,77,13385,2146960429,2147515794,2147294902,2147518628,2147093814,2146924480,2147723675,2147120822,101,-1,8,43249
1347612888,5803,1019.9500122070312000,197.2563934326172000,499.0672912597656000,7.5584278106689450,38.0527496337890600,51,102,99,79,77,13381,2146955364,2147515437,2147296585,2147519552,2147089298,2146920685,2147718829,2147121691,2761,-1,8,22276
1347616488,5805,1024.1800537109375000,199.1168060302734400,499.4071960449219000,7.5478849411010740,37.9429283142089840,52,99,98,80,78,13383,2146956178,2147514770,2147291940,2147520301,2147090587,2146923702,2147719433,2147121142,299,-1,8,44226
1347620088,5804,1022.7600097656250000,200.4958953857422000,499.8125000000000000,7.5353121757507320,37.8651084899902340,51,101,98,79,76,13385,2146955849,2147515044,2147291611,2147517714,2147090185,2146923309,2147714340,2147122148,2460,-1,9,25824
1347623688,5807,1025.6800537109375000,200.7588043212890600,500.0129089355469000,7.5290942192077640,37.8519706726074200,53,99,109,78,78,13382,2146956562,2147516754,2147296210,2147516544,2147090560,2146924699,2147722148,2147119661,3107,-1,8,11536
1347627288,5806,1023.1500244140625000,200.3661956787109400,499.3081970214844000,7.5509538650512695,37.8644599914550800,52,100,98,79,78,13380,2146957485,2147514148,2147291840,2147518080,2147092525,2146924909,2147719213,2147119433,3475,-1,9,46107
1347630888,5803,1026.9200439453125000,200.5133972167968800,499.3208923339844000,7.5505599975585940,37.8554496765136700,52,109,98,79,77,13381,2146959030,2147519561,2147291858,2147519945,2147089316,2146924233,2147715364,2147119844,3386,-1,8,13313
1347634488,5806,1030.5699462890625000,199.9474029541015600,498.3147888183594000,7.5817651748657230,37.8723907470703100,53,100,99,78,77,13375,2146958235,2147516708,2147295067,2147518957,2147089325,2146922880,2147718198,2147121142,3160,-1,9,57068
1347638088,5807,1026.8000488281250000,200.8504028320312500,500.1687927246094000,7.5242571830749510,37.8497085571289060,52,100,99,78,77,13380,2146959908,2147514998,2147295021,2147521398,2147092745,2146923684,2147719314,2147120621,2894,-1,8,21397
1347641688,5806,1025.1199951171875000,201.1177978515625000,500.7202148437500000,7.5071477890014650,37.8428306579589840,52,100,99,78,78,13373,2146960576,2147513234,2147295414,2147522240,2147090011,2146924242,2147718701,2147121755,2871,-1,8,10593
1347645288,5804,1027.6099853515625000,201.3520050048828000,500.5223083496094000,7.5132880210876465,37.8247795104980500,52,101,98,76,77,13371,2146958637,2147516891,2147298322,2147522368,2147092690,2146924589,2147718445,2147118528,3055,-1,8,43260
1347648888,5805,1030.1700439453125000,201.6710968017578000,500.7546081542969000,7.5060801506042480,37.8099288940429700,52,100,98,79,77,13371,2146957357,2147518994,2147294427,2147521764,2147095341,2146922697,2147715318,2147118665,3533,-1,8,3511
1347652488,5807,1032.3100585937500000,200.6138000488281200,499.2059936523437500,7.5541257858276370,37.8474998474121100,52,100,99,78,77,13367,2146958738,2147516233,2147294957,2147520905,2147092160,2146921746,2147717430,2147120585,808,-1,8,36843
1347656088,5809,1029.1800537109375000,200.6147003173828000,500.1648864746094000,7.5243787765502930,37.8638610839843750,53,104,98,78,76,13365,2146957577,2147516873,2147296530,2147521654,2147090624,2146922477,2147722358,2147120018,3591,-1,8,27051
1347659688,5806,1031.6300048828125000,201.4687957763672000,500.7215881347656000,7.5071058273315430,37.8211898803710940,52,101,98,78,77,13365,2146957174,2147517641,2147296612,2147521737,2147093933,2146921718,2147714907,2147119140,3531,-1,9,40633
1347663288,5808,1033.9599609375000000,201.3497924804687500,500.6983032226562500,7.5078291893005370,37.8276710510253900,52,101,100,79,77,13366,2146958144,2147519241,2147295286,2147519177,2147091355,2146923264,2147718043,2147118454,3372,-1,8,28091
1347666888,5808,1034.5000000000000000,201.2505035400390600,500.4317016601562500,7.5161008834838870,37.8290290832519500,51,100,99,79,77,13358,2146955584,2147515245,2147295488,2147522038,2147091748,2146925833,2147715062,2147120009,484,-1,8,47958
1347670488,5805,1030.8100585937500000,197.9808959960937500,497.1229858398437500,7.6187210083007810,37.9742507934570300,52,105,98,78,77,13357,2146958162,2147517613,2147292900,2147520384,2147091008,2146923922,2147717906,2147119643,99,-1,8,53223
1347674088,5804,1025.6099853515625000,198.5086059570312500,496.5174865722656000,7.6374940872192380,37.9308509826660160,52,100,99,78,77,13355,2146962112,2147515766,2147294866,2147520841,2147091803,2146922185,2147713398,2147121106,2781,-1,8,54882
1347677688,5808,1025.1500244140625000,197.9535064697265600,497.3638000488281000,7.6112561225891110,37.9803886413574200,53,100,99,79,77,13352,2146957275,2147514212,2147293101,2147521453,2147092205,2146923931,2147712448,2147122157,3176,-1,8,1234
1347681288,5804,1025.5899658203125000,197.4761962890625000,498.1079101562500000,7.5881819725036620,38.0220985412597660,52,103,99,78,77,13355,2146956681,2147513024,2147293860,2147523392,2147090697,2146923702,2147718857,2147122395,3523,-1,8,34441
1347684888,5805,1024.4000244140625000,198.6815032958984400,499.2695007324219000,7.5521550178527830,37.9675903320312500,52,101,98,78,77,13355,2146956690,2147516379,2147294290,2147523392,2147090029,2146928374,2147718994,2147121947,524,-1,8,45332
1347688488,5805,1023.7999877929688000,198.9132995605468800,499.1885070800781000,7.5546669960021970,37.9525604248046900,53,103,99,79,78,13354,2146959277,2147513563,2147295305,2147518473,2147090934,2146922459,2147721536,2147122368,553,-1,8,40729
1347692088,5807,1020.9500122070312000,199.3641967773437500,500.8536987304687500,7.5030069351196290,37.9534111022949200,52,101,97,79,78,13353,2146958162,2147512768,2147295588,2147519442,2147092498,2146927725,2147717732,2147123026,3297,-1,8,42325
1347695688,5808,1020.4899902343750000,198.7312011718750000,501.0745849609375000,7.4961519241333010,37.9961509704589840,52,102,102,78,77,13347,2146958912,2147514011,2147291922,2147520393,2147089709,2146925723,2147720603,2147122441,3410,-1,8,51143
1347699288,5808,1025.1700439453125000,198.4259033203125000,501.0596008300781000,7.4966168403625490,38.0145111083984400,53,101,99,78,76,13352,2146959524,2147515364,2147294354,2147520265,2147092964,2146921481,2147720521,2147116525,374,-1,8,27964
1347702888,5806,1023.2500000000000000,199.9524993896484400,500.9342956542969000,7.5005040168762210,37.9183082580566400,52,105,99,79,77,13351,2146959286,2147512923,2147296210,2147519780,2147093750,2146926482,2147717860,2147122020,152,-1,8,40223
1347706488,5805,1026.4200439453125000,200.8070068359375000,500.4367980957031000,7.5159430503845215,37.8572883605957000,53,101,98,79,77,13352,2146962185,2147514770,2147293988,2147522450,2147092077,2146923282,2147720164,2147119881,3127,-1,8,35202
1347710088,5808,1027.5100097656250000,200.4998931884765600,500.6567993164062500,7.5091161727905270,37.8795089721679700,53,102,99,78,77,13350,2146961289,2147515666,2147295104,2147519680,2147085065,2146923776,2147719917,2147121444,563,-1,8,37024
1347713688,5808,1028.9300537109375000,199.8905944824218800,498.8500061035156000,7.5651659965515140,37.8853416442871100,53,103,98,79,77,13353,2146960548,2147515620,2147295094,2147521920,2147090925,2146923154,2147718573,2147120155,438,0,8,8751
1347716156,5803,1029.4399414062500000,199.3786926269531200,498.2579040527344000,7.5835309028625490,37.9072914123535160,53,102,98,77,78,13353,2146964498,2147519405,2147294738,2147522569,2147091785,2146929252,2147715721,2147124086,2540,-1,8,56497
